ROMMA est une association bénévole à but non lucratif. Votre soutien est indispensable : ADHERER à ROMMA ou FAIRE un DON

Voiron - (38, Isère)

Voironnais (300 m)   Longitude: 05° 35' E   Latitude: 45° 23' N Station partenaire n°109
 

Détail journalier du     <<     >>

Température Precipitation Humidité Pression Vent Dir Rafale Dir. rafale Ensol.
Heure (°C) (mm) (%) (hPa) (km/h) (km/h) (min)
01:00 24.407110222N5N0
02:00 23.507310221N5N0
03:00 22.907410221N3N0
04:00 21.9078102202N0
05:00 21.3080102203N0
06:00 20.808010221N5N0
07:00 21.1080102205ENE0
08:00 23.807310232SE5SE60
09:00 25.107210232SSE10S60
10:00 27.206410232S8SSE60
11:00 28.805510244S10SSE60
12:00 29.405510236S15SSE60
13:00 30.605610236SSE15SO60
14:00 32.005310235S15SSE60
15:00 32.605210225SO16S60
16:00 33.705310226SSO16SSE60
17:00 34.305110215SSO11SSO60
18:00 34.305210216SSO11SSO60
19:00 34.305110206SSO15SSO60
20:00 33.805310213SSO8SO60
21:00 31.206510213SO8ONO60
22:00 28.907110212NNO6NNO0
23:00 27.707510221NNO5NNO0
minuit 26.507810222SSO6O0

Graphique du 26-06-2019

 

Serveur OMMA